Simultaneous Nadir Overpasses (SNOs) Predictions

Prediction of SNOs between GOES-16 and NOAA-19 Satellite Orbit:

Table of predicted SNOs for the next 14.0 days since TLE Epoch: 3/9/2024
Index Date Time (GOES-16) GOES-16 Lat,Lon NOAA-19 Lat,Lon Distance(km) Time Diff (sec)
1 03/10/2024 02:16:57 -0.05, -75.19 -0.54, -77.28 238.73 80
2 03/11/2024 02:02:06 -0.05, -75.20 0.18, -74.32 100.78 80
3 03/12/2024 01:49:53 -0.04, -75.21 0.85, -71.35 440.32 80
4 03/13/2024 14:24:23 0.05, -75.24 0.93, -78.99 428.01 80
5 03/14/2024 14:12:11 0.04, -75.25 0.24, -76.02 88.07 80
6 03/15/2024 13:57:19 0.04, -75.26 -0.45, -73.05 252.01 80
7 03/18/2024 02:19:42 -0.04, -75.27 -0.60, -77.75 282.64 80
8 03/19/2024 02:04:50 -0.04, -75.29 0.09, -74.78 57.79 80
9 03/20/2024 01:52:37 -0.03, -75.30 0.77, -71.81 398.45 80
10 03/21/2024 14:24:26 0.03, -75.36 0.99, -79.45 467.27 80
11 03/22/2024 14:14:53 0.03, -75.38 0.28, -76.48 125.85 80
